Terug naar catalogus

SL-24 R/B

ActiefLEO
NORAD 27610·ROCKET BODY·🇷🇺 Russia

Gelanceerd Dec 20, 2002 vanaf Baikonur Cosmodrome

Loading…

Volgende Passages (komende 24 uur)

TLE

VersSource: Space-Track

Epoch: Sep 14, 2026, 13:02 UTC

1 27610U 02058F   26257.54343770 -.00000013  00000-0  30085-4 0  9991
2 27610  64.5578 276.0777 0270770  49.3190 115.2714 14.29577012237683

Volg SL-24 R/B in realtime met AllMySat

Download on the App Store